Total_Precipitation_Accumulation
1.94 2.10 2.05 1.97 1.90 1.98 1.90 1.75 1.55 1.57 1.52 1.33 1.18 1.18 1.21 1.23 1.23 1.34 1.46 1.37 1.39 1.62 2.03 2.30 2.38 2.30 2.24 2.23 2.18 2.06 1.92 1.78 1.65 1.46 1.32 1.17 1.05 0.98 0.96 0.95 0.96 0.93 0.90
2.44 2.59 2.58 2.44 2.22 2.21 2.15 2.04 1.98 2.03 1.95 1.87 1.70 1.57 1.45 1.50 1.46 1.51 1.69 1.72 1.59 1.62 2.01 2.47 2.69 2.69 2.59 2.55 2.38 2.17 2.10 2.05 1.98 1.84 1.68 1.49 1.30 1.20 1.14 1.08 1.07 1.04 1.00
2.94 3.00 2.99 2.73 2.53 2.48 2.57 2.49 2.42 2.41 2.17 2.08 2.01 1.92 1.76 1.62 1.58 1.62 1.81 2.08 1.97 1.95 2.08 2.19 2.34 2.51 2.67 2.83 2.85 2.68 2.47 2.32 2.23 2.13 2.02 1.88 1.69 1.51 1.41 1.33 1.28 1.20 1.15
3.06 3.14 3.15 3.02 2.84 2.72 2.92 3.04 2.98 2.90 2.74 2.67 2.50 2.26 1.99 1.88 1.86 1.98 2.08 2.26 2.45 2.40 2.39 2.25 2.13 2.23 2.55 2.82 2.98 3.01 2.84 2.57 2.41 2.37 2.31 2.22 2.01 1.84 1.66 1.57 1.52 1.42 1.32
3.41 3.44 3.37 3.35 3.30 3.31 3.31 3.13 3.24 3.13 3.13 3.03 2.62 2.39 2.09 2.02 2.11 2.08 2.20 2.26 2.40 2.43 2.47 2.30 2.19 2.19 2.37 2.70 2.86 3.07 3.06 2.95 2.83 2.68 2.55 2.47 2.35 2.13 1.90 1.76 1.67 1.57 1.45
3.81 3.96 3.89 3.80 3.81 3.78 3.58 3.52 3.51 3.35 3.18 3.05 2.63 2.38 2.16 2.02 2.01 2.07 2.10 2.08 2.07 2.05 2.08 2.18 2.37 2.23 2.30 2.41 2.45 2.67 2.92 3.09 2.98 2.85 2.75 2.66 2.50 2.29 2.04 1.90 1.81 1.75 1.68
4.57 4.56 4.36 4.09 3.96 3.97 3.89 3.88 3.72 3.52 3.25 3.09 2.97 2.63 2.18 1.92 1.91 1.88 1.88 1.88 1.88 1.91 1.97 2.06 2.09 2.07 2.07 2.14 2.10 2.23 2.46 2.76 2.87 2.91 2.94 2.84 2.69 2.49 2.27 2.08 1.99 1.92 1.86
4.81 4.74 4.74 4.64 4.41 4.22 4.03 3.86 3.79 3.63 3.30 3.16 3.10 2.96 2.51 2.12 1.77 1.56 1.56 1.55 1.58 1.75 1.77 1.76 1.85 1.95 1.96 2.02 2.04 2.17 2.29 2.43 2.63 2.74 2.71 2.65 2.59 2.58 2.52 2.37 2.21 2.11 2.03
5.04 4.89 4.73 4.50 4.34 4.21 4.06 3.86 3.67 3.55 3.31 3.16 3.07 3.11 2.84 2.45 1.97 1.65 1.47 1.39 1.37 1.48 1.54 1.59 1.64 1.72 1.82 1.88 1.91 2.06 2.14 2.15 2.31 2.44 2.49 2.50 2.45 2.43 2.43 2.40 2.34 2.28 2.22
4.64 4.39 4.25 4.16 4.00 3.70 3.46 3.30 3.20 3.05 2.92 2.78 2.75 2.65 2.53 2.37 2.35 2.13 1.84 1.67 1.60 1.57 1.56 1.55 1.57 1.66 1.69 1.79 1.95 2.03 2.00 2.00 2.14 2.20 2.24 2.30 2.34 2.38 2.41 2.46 2.42 2.37 2.36
4.05 3.80 3.65 3.45 3.24 2.88 2.52 2.40 2.47 2.53 2.51 2.43 2.40 2.41 2.39 2.26 2.22 2.18 2.06 1.89 1.79 1.68 1.62 1.68 1.72 1.72 1.69 1.71 1.75 1.92 1.92 1.77 1.87 1.95 2.06 2.14 2.17 2.25 2.31 2.35 2.40 2.40 2.40
3.48 3.10 2.79 2.48 2.23 2.04 1.81 1.76 1.80 1.91 2.08 2.17 2.27 2.29 2.29 2.20 2.18 2.20 2.13 2.08 1.99 1.85 1.69 1.62 1.64 1.66 1.66 1.66 1.68 1.84 1.64 1.57 1.55 1.61 1.72 1.81 1.82 1.87 1.95 2.07 2.24 2.36 2.47
2.74 2.43 2.13 1.98 1.81 1.68 1.58 1.52 1.49 1.49 1.59 1.74 1.87 1.99 2.08 2.09 2.10 2.17 2.27 2.27 2.10 1.97 1.84 1.70 1.61 1.59 1.60 1.61 1.61 1.71 1.53 1.43 1.36 1.35 1.32 1.37 1.39 1.45 1.57 1.71 1.86 2.01 2.14
2.01 1.73 1.50 1.36 1.29 1.30 1.27 1.29 1.31 1.31 1.32 1.40 1.50 1.65 1.79 1.84 1.88 1.91 1.95 2.04 2.09 2.00 1.81 1.69 1.62 1.53 1.44 1.35 1.37 1.36 1.21 1.24 1.14 1.11 1.10 1.11 1.12 1.12 1.16 1.19 1.26 1.34 1.41
1.34 1.17 1.05 1.01 0.96 0.95 0.97 0.97 1.00 1.07 1.14 1.18 1.21 1.28 1.38 1.45 1.52 1.59 1.67 1.74 1.85 1.90 1.77 1.56 1.51 1.42 1.26 1.13 1.15 0.98 0.93 0.98 0.90 0.85 0.82 0.84 0.85 0.86 0.88 0.93 0.98 1.01 1.04
0.97 0.90 0.84 0.76 0.67 0.65 0.66 0.70 0.74 0.77 0.84 0.93 0.97 1.01 1.08 1.14 1.24 1.32 1.42 1.50 1.52 1.59 1.60 1.41 1.23 1.14 1.08 0.95 0.99 0.85 0.85 0.87 0.74 0.72 0.68 0.68 0.73 0.79 0.79 0.80 0.83 0.86 0.87
0.69 0.62 0.57 0.53 0.50 0.50 0.54 0.61 0.65 0.67 0.69 0.74 0.80 0.85 0.90 0.91 0.99 1.04 1.06 1.10 1.21 1.30 1.34 1.23 1.09 1.02 0.96 0.89 0.86 0.87 0.85 0.79 0.70 0.72 0.68 0.67 0.68 0.68 0.68 0.68 0.69 0.73 0.78
0.55 0.49 0.44 0.42 0.42 0.43 0.45 0.47 0.50 0.54 0.61 0.65 0.69 0.73 0.78 0.79 0.84 0.87 0.90 0.92 1.00 1.10 1.18 1.20 1.13 1.06 0.99 0.92 0.87 0.89 0.74 0.63 0.62 0.65 0.59 0.55 0.54 0.54 0.56 0.57 0.57 0.57 0.59
0.53 0.47 0.41 0.40 0.37 0.35 0.36 0.36 0.38 0.41 0.49 0.56 0.59 0.65 0.70 0.71 0.70 0.68 0.73 0.79 0.86 0.95 1.09 1.12 1.05 0.96 0.89 0.82 0.85 0.79 0.72 0.77 0.58 0.54 0.50 0.45 0.44 0.44 0.44 0.44 0.44 0.44 0.44
0.42 0.41 0.39 0.38 0.35 0.32 0.31 0.31 0.32 0.34 0.39 0.44 0.45 0.50 0.58 0.62 0.62 0.64 0.64 0.75 0.83 0.95 1.04 1.05 0.98 0.89 0.84 0.79 0.88 0.89 0.83 0.79 0.65 0.46 0.46 0.41 0.40 0.39 0.40 0.40 0.39 0.38 0.37
0.39 0.36 0.33 0.32 0.27 0.25 0.23 0.24 0.28 0.33 0.39 0.39 0.40 0.40 0.41 0.47 0.55 0.58 0.59 0.66 0.77 0.92 0.94 0.93 0.92 0.88 0.82 0.85 0.87 0.84 0.87 0.82 0.70 0.55 0.54 0.48 0.48 0.52 0.55 0.51 0.45 0.44 0.39
0.35 0.31 0.29 0.30 0.28 0.22 0.22 0.22 0.23 0.30 0.38 0.41 0.39 0.36 0.34 0.32 0.38 0.46 0.48 0.55 0.68 0.78 0.84 0.88 0.87 0.87 0.84 0.87 0.91 0.89 0.91 0.92 0.87 0.63 0.64 0.55 0.50 0.60 0.64 0.60 0.53 0.43 0.37
0.38 0.35 0.35 0.36 0.37 0.30 0.21 0.18 0.19 0.27 0.39 0.39 0.38 0.40 0.35 0.33 0.39 0.47 0.48 0.45 0.50 0.52 0.61 0.78 0.89 0.93 0.96 1.03 1.11 1.07 1.03 1.02 0.98 0.77 0.80 0.76 0.61 0.67 0.57 0.52 0.57 0.47 0.41
0.44 0.42 0.42 0.43 0.44 0.33 0.22 0.15 0.17 0.27 0.36 0.31 0.32 0.37 0.44 0.46 0.40 0.41 0.46 0.50 0.55 0.55 0.56 0.61 0.79 0.86 0.85 0.94 1.05 1.08 1.08 1.03 0.97 0.91 0.95 0.96 0.70 0.65 0.58 0.76 0.78 0.66 0.53
0.48 0.48 0.48 0.50 0.50 0.38 0.25 0.19 0.21 0.30 0.37 0.34 0.32 0.31 0.31 0.35 0.33 0.38 0.48 0.62 0.65 0.69 0.55 0.58 0.68 0.73 0.76 0.82 0.88 0.96 1.09 1.17 1.13 1.00 0.93 0.95 0.83 0.72 0.73 0.94 0.93 0.90 0.73
0.46 0.42 0.46 0.54 0.50 0.41 0.28 0.23 0.25 0.29 0.35 0.40 0.43 0.42 0.32 0.29 0.31 0.35 0.49 0.65 0.73 0.72 0.75 0.90 1.01 1.00 0.95 0.93 0.89 0.97 1.15 1.21 1.22 1.18 0.99 0.97 0.99 0.91 0.94 1.00 1.07 1.01 0.93